Francistown, Botswana

1:44 AM CAT on January 22, 2017 (GMT +0200)
Francistown

Weather History for FBFT - January, 2013

Change the Weather History Date:

Monday, January 28, 2013

  Actual Average Record
Temperature  
Mean Temperature 74 °F -  
Max Temperature 89 °F 84 °F 95 °F (2015)
Min Temperature 60 °F 65 °F 57 °F (2012)
Cooling Degree Days 10    
Growing Degree Days 24 (Base 50)    
Moisture  
Dew Point 62 °F    
Average Humidity 61    
Maximum Humidity 94    
Minimum Humidity 38    
Precipitation  
Precipitation 0.00 in - - ()
Sea Level Pressure  
Sea Level Pressure 30.08 in    
Wind  
Wind Speed 7 mph ()    
Max Wind Speed 18 mph    
Max Gust Speed -    
Visibility 6.2 miles    
Events      
Averages and records for this station are not official NWS values.
T = Trace of Precipitation, MM = Missing Value Source: Averaged Metar Reports

Daily Weather History Graph

Daily Weather History Graph

Search for Another Location

Airport or City:

Trip Planner

Search our weather history database for the weather conditions in past years. The results will help you decide how hot, cold, wet, or windy it might be!

Date:

Astronomy

Jan. 28, 2013 Rise Set
Actual Time 5:49 AM CAT 6:55 PM CAT
Civil Twilight 5:26 AM CAT 7:19 PM CAT
Nautical Twilight 4:57 AM CAT 7:47 PM CAT
Astronomical Twilight 4:29 AM CAT 8:16 PM CAT
Moon 7:39 PM CAT (1/28) 6:46 AM CAT (1/28)
Length of Visible Light 13h 53m
Length of Day
13h 06m
Full, 98% of the Moon is Illuminated
Jan 28
Full
Feb 3
Last Quarter
Feb 10
New
Feb 17
First Quarter
Feb 25
Full

Hourly Weather History & Observations

Time (CAT) Temp. Heat Index Dew Point Humidity Pressure Visibility Wind Dir Wind Speed Gust Speed Precip Events Conditions
1:00 AM 71.6 °F - 60.8 °F 69% 30.04 in - ENE 5.8 mph - N/A   Clear
2:00 AM 74 °F - 64 °F 62%  in 6 mi East 12.7 mph - -  
3:00 AM 68.0 °F - 62.6 °F 83% 30.04 in - East 3.5 mph - N/A   Clear
4:00 AM 66.2 °F - 62.6 °F 88% 30.04 in - Variable 2.3 mph - N/A   Clear
5:00 AM 62.6 °F - 60.8 °F 94% 30.06 in - Variable 1.2 mph - N/A   Clear
6:00 AM 60.8 °F - 59.0 °F 94% 30.09 in - SE 4.6 mph - N/A   Clear
7:00 AM 66.2 °F - 62.6 °F 88% 30.12 in - SE 4.6 mph - N/A   Clear
8:00 AM 73.4 °F - 64.4 °F 73% 30.15 in - SE 5.8 mph - N/A   Clear
9:00 AM 78.8 °F - 64.4 °F 61% 30.15 in - East 17.3 mph - N/A   Clear
10:00 AM 82.4 °F 83.4 °F 62.6 °F 51% 30.15 in 6.2 mi ENE 16.1 mph - N/A   Partly Cloudy
11:00 AM 84.2 °F 85.6 °F 64.4 °F 51% 30.15 in 6.2 mi East 13.8 mph - N/A   Partly Cloudy
12:00 PM 86.0 °F 86.1 °F 60.8 °F 43% 30.12 in 6.2 mi East 18.4 mph - N/A   Scattered Clouds
1:00 PM 87.8 °F 88.5 °F 62.6 °F 43% 30.12 in 6.2 mi ESE 12.7 mph - N/A   Partly Cloudy
2:00 PM 87.8 °F 87.6 °F 60.8 °F 40% 30.06 in 6.2 mi East 9.2 mph - N/A   Partly Cloudy
3:00 PM 89.6 °F 90.1 °F 62.6 °F 40% 30.06 in 6.2 mi ENE 8.1 mph - N/A   Partly Cloudy
4:00 PM 87.8 °F 88.5 °F 62.6 °F 43% 30.04 in 6.2 mi ESE 8.1 mph - N/A   Partly Cloudy
5:00 PM 89.6 °F 89.5 °F 60.8 °F 38% 30.01 in 6.2 mi SE 4.6 mph - N/A   Partly Cloudy
7:00 PM 84.2 °F 84.4 °F 60.8 °F 45% 30.04 in 6.2 mi ESE 5.8 mph - N/A   Partly Cloudy
8:00 PM 80.6 °F 82.3 °F 64.4 °F 58% 30.04 in 6.2 mi SE 5.8 mph - N/A   Partly Cloudy
9:00 PM 80.6 °F 81.8 °F 62.6 °F 54% 30.06 in 6.2 mi SE 18.4 mph - N/A   Partly Cloudy
10:00 PM 78.8 °F - 62.6 °F 57% 30.09 in - ESE 9.2 mph - N/A   Clear
11:00 PM 78.8 °F - 62.6 °F 57% 30.12 in - East 8.1 mph - N/A   Clear